Погода в Кабоже

Россия / Новгородская область     58°34′38″N   34°58′13″E
темп.,
°C
ветер,
м/с
пор.,
м/с
влажн.,
%
обл.,
%
осадки,
мм/ч
давл.,
гПа
погр.,
м
13 мая, чт
чт1300:00+14ююв378078 0.0 1020213
03:00+13в3108491 0.1 1018291
06:00+13вюв410895 0.0 1018545
09:00+16юв487199 0.0 10181100
12:00+18юв46494 0.0 10171624
15:00+20юв46385 0.0 10161825
18:00+19юв374862 0.0 10141801
21:00+14ю4969100 0.1 1013452
14 мая, пт
пт1400:00+12ю387639 0.0 1014430
03:00+8ююв269799 0.0 1015154
06:00+9ююв389122 0.0 1015263
09:00+15ю466011 0.0 10151013
12:00+18ююв464453 0.0 10141644
15:00+19ююв4645100 0.0 10141817
18:00+16юв256487 0.0 1013141
21:00+13в278117 0.0 1012142
15 мая, сб
сб1500:00+11вюв3109698 0.0 1011227
03:00+11вюв399821 0.0 1010222
06:00+12в399784 0.1 1008273
09:00+16юв498784 1.9 1006673
12:00+20ю586695 1.1 10051385
15:00+21ю4761100 3.0 10051398
18:00+19ю586547 0.3 10031090
21:00+14ююз4119250 1.3 1004457
16 мая, вс
вс1600:00+12ююз4119799 0.3 1006502
03:00+13зюз4896100 1.1 1008512
06:00+11з379516 0.0 1010358
09:00+15з23695 0.0 1011698
12:00+18з2348100 0.0 10121519
15:00+19з2344100 0.0 10121752
18:00+19зсз12465 0.0 10121613
21:00+15юв116490 0.0 101311
17 мая, пн
пн1700:00+14юв226485 0.0 101424
03:00+11юв22805 0.0 101529
06:00+12вюв258211 0.0 1016135
09:00+18юв3664100 0.0 1016596
12:00+20юв4554100 0.0 10151359
15:00+22юв4546100 0.0 10141895
18:00+21вюв475985 0.0 10131025
21:00+17в41277100 0.0 1013472